LATEST WEATHER OBSERVATIONS RECORDED AT FUA'AMOTU AIRPORT
DATE TIME CLOUD WIND KT TEMP
(C)
DewPoint
(C)
RH(%) WEATHER MSL PRESS.
(MB)
20.11.2017 04:00PM CLOUDY CALM 0 28 26 88.92899 LIGHT DRIZZLE 1010
20.11.2017 03:00PM CLOUDY CALM 0 28 25 83.80571 LIGHT SHOWER 1011
20.11.2017 02:00PM CLOUDY CALM 0 28 25 83.80571 NIL 1011
20.11.2017 01:00PM CLOUDY CALM 0 30 25 74.65854 NIL 1011
20.11.2017 12:00PM CLOUDY CALM 0 30 25 74.65854 NIL 1011
20.11.2017 11:00AM CLOUDY CALM 0 30 25 74.65854 NIL 1012
20.11.2017 10:00AM CLOUDY CALM 0 29 25 79.08285 NIL 1012
20.11.2017 09:00AM CLOUDY VARIABLE 1 28 25 83.80571 NIL 1012.2
20.11.2017 08:00AM CLOUDY CALM 0 26 24.7 92.56802 NIL 1012.3
20.11.2017 07:00AM CLOUDY CALM 0 24.5 24.3 98.8104 NIL 1011.8
20.11.2017 06:00AM CLOUDY CALM 0 24 23.7 98.21348 NIL 1011.1
20.11.2017 05:00AM CLOUDY CALM 0 24.4 23 91.92273 NIL 1010.6
20.11.2017 04:00AM CLOUDY CALM 0 24.4 23.8 96.46553 NIL 1010.5
20.11.2017 03:00AM CLOUDY CALM 0 24.4 23.8 96.46553 NIL 1010.8
20.11.2017 02:00AM CLOUDY CALM 0 25.1 24.2 94.76686 NIL 1011
20.11.2017 01:00AM CLOUDY CALM 0 25.1 24.2 94.76686 NIL 1012.3
19.11.2017 11:00PM CLOUDY CALM 0 25.1 24.2 94.76686 NIL 1013
19.11.2017 11:00PM CLOUDY CALM 0 25.4 24.3 93.65102 NIL 1013
19.11.2017 10:00PM CLOUDY CALM 0 25.4 24.3 93.65102 NIL 1012
19.11.2017 09:00PM CLOUDY CALM 0 25.4 24.3 93.65102 NIL 1012
19.11.2017 08:00PM CLOUDY CALM 0 26.5 23.8 85.15976 NIL 1011
19.11.2017 07:00PM CLOUDY CALM 0 26.5 23.8 85.15976 NIL 1011
19.11.2017 06:00PM CLOUDY CALM 0 28 24 78.94173 NIL 1010
19.11.2017 05:00PM CLOUDY NW 6 27.5 24.1 81.76723 NIL 1010